Le nostre stazioni meteo in Italia

Pubblicità
Il mio iltempo24.it
Rimini, Italia (16149): Temperatura & dewpoint: 10.02.2019 07:00:00 - 16.02.2019 07:00:00 (CET)Rimini, Italia (16149): velocità del vento: 10.02.2019 07:00:00 - 16.02.2019 07:00:00 (CET)Rimini, Italia (16149): direzione del vento: 10.02.2019 07:00:00 - 16.02.2019 07:00:00 (CET)Rimini, Italia (16149): reduced air pressure: 10.02.2019 07:00:00 - 16.02.2019 07:00:00 (CET)Rimini, Italia (16149): visibility: 10.02.2019 07:00:00 - 16.02.2019 07:00:00 (CET)Rimini, Italia (16149): precipitazioni: 10.02.2019 07:00:00 - 16.02.2019 07:00:00 (CET)
Data & Tempo tt [°C] td [°C] ff [km/h] ff [kn] dd ppp [hPa] vv [km] rr [mm]
16.02.2019 07:00:00 0,0 -0,8 5 3 S 1031,6 6 -
16.02.2019 06:00:00 -1,0 -2,0 4 2 - - 9 -
16.02.2019 05:00:00 1,0 0,0 2 1 - - 10 -
16.02.2019 04:00:00 1,2 -0,3 5 3 S 1031,6 9 0,0
16.02.2019 03:00:00 2,0 0,0 9 5 S - 9 -
16.02.2019 02:00:00 3,0 1,0 5 3 SSO - 9 -
16.02.2019 01:00:00 2,1 0,1 4 2 - 1032,3 10 -
16.02.2019 00:00:00 3,0 0,0 8 4 O - 10 -
15.02.2019 23:00:00 3,0 1,0 5 3 OSO - 10 -
15.02.2019 22:00:00 2,0 -0,4 5 3 S 1032,1 10 0,0
15.02.2019 21:00:00 4,0 1,0 8 4 - - 10 -
15.02.2019 20:00:00 4,0 1,0 8 4 S - 10 -
15.02.2019 19:00:00 5,1 1,5 5 3 SSE 1031,6 5 -
15.02.2019 18:00:00 8,0 3,0 2 1 - - 5 -
15.02.2019 17:00:00 9,0 3,0 9 5 E - 6 -
15.02.2019 16:00:00 9,9 1,8 5 3 NE 1031,7 7 0,0
15.02.2019 15:00:00 10,0 2,0 9 5 NNE - 7 -
15.02.2019 14:00:00 10,0 2,0 13 7 N - 7 -
15.02.2019 13:00:00 10,5 2,1 15 8 N 1031,7 7 -
15.02.2019 12:00:00 10,0 2,0 9 5 N - 7 -
15.02.2019 11:00:00 8,0 1,0 8 4 N - 8 -
15.02.2019 10:00:00 8,4 0,7 9 5 NO 1032,8 8 0,0
15.02.2019 09:00:00 5,0 1,0 2 1 - - 10 -
15.02.2019 08:00:00 0,0 -3,0 5 3 SSO - 8 -
15.02.2019 07:00:00 -0,3 -3,8 5 3 SSO 1032,1 7 -
15.02.2019 06:00:00 0,0 -4,0 8 4 SO - 9 -
15.02.2019 05:00:00 2,0 -2,0 5 3 SSO - 8 -
15.02.2019 04:00:00 1,3 -1,9 4 2 - 1032,1 8 0,0
15.02.2019 03:00:00 1,0 -2,0 5 3 SSO - 8 -
15.02.2019 02:00:00 1,0 -1,0 8 4 S - 8 -
15.02.2019 01:00:00 1,4 -1,3 5 3 S 1033,1 8 -
15.02.2019 00:00:00 2,0 -1,0 8 4 S - 9 -
14.02.2019 23:00:00 2,0 -1,0 8 4 S - 8 -
14.02.2019 22:00:00 2,3 -1,1 5 3 SSO 1032,8 10 0,0
14.02.2019 21:00:00 3,0 -1,0 4 2 - - 8 -
14.02.2019 20:00:00 4,0 -1,0 5 3 S - 8 -
14.02.2019 19:00:00 4,5 -0,4 4 2 S 1033,2 10 -
14.02.2019 18:00:00 7,0 0,0 5 3 NE - 10 -
14.02.2019 17:00:00 10,0 -1,0 2 1 - - 10 -
14.02.2019 16:00:00 10,5 -1,8 8 4 ENE 1033,3 10 0,0
14.02.2019 15:00:00 10,0 0,0 5 3 ENE - 10 -
14.02.2019 14:00:00 10,0 1,0 11 6 N - 10 -
14.02.2019 13:00:00 9,9 1,5 16 9 N 1034,8 10 -
14.02.2019 12:00:00 12,0 -2,0 15 8 ONO - 10 -
14.02.2019 11:00:00 10,0 -2,0 15 8 ONO - 10 -
14.02.2019 10:00:00 8,9 -1,6 8 4 O 1036,1 10 0,0
14.02.2019 09:00:00 5,0 -1,0 4 2 - - 10 -
14.02.2019 08:00:00 0,0 -3,0 5 3 S - 10 -
14.02.2019 07:00:00 -1,0 -3,4 5 3 S 1036,6 10 -
14.02.2019 06:00:00 0,0 -3,0 5 3 OSO - 10 -
14.02.2019 05:00:00 -1,0 -3,0 4 2 SSO - 10 -
14.02.2019 04:00:00 -0,7 -3,3 4 2 SSO 1036,5 10 0,0
14.02.2019 03:00:00 -1,0 -3,0 4 2 - - 10 -
14.02.2019 02:00:00 1,0 -3,0 8 4 SSO - 10 -
14.02.2019 01:00:00 1,1 -3,2 5 3 OSO 1037,4 10 -
14.02.2019 00:00:00 1,0 -4,0 4 2 - - 10 -
13.02.2019 23:00:00 3,0 -4,0 5 3 S - 10 -
13.02.2019 22:00:00 2,2 -2,6 9 5 S 1037,3 10 0,0
13.02.2019 21:00:00 2,0 -2,0 4 2 - - 10 -
13.02.2019 20:00:00 4,0 -2,0 4 2 - - 10 -
13.02.2019 19:00:00 4,3 -0,9 4 2 SSE 1036,8 10 -
13.02.2019 18:00:00 7,0 -1,0 4 2 ESE - 10 -
13.02.2019 17:00:00 9,0 -1,0 5 3 ENE - 10 -
13.02.2019 16:00:00 9,6 -1,3 8 4 ENE 1035,6 10 0,0
13.02.2019 15:00:00 10,0 -2,0 11 6 ENE - 10 -
13.02.2019 14:00:00 10,0 -2,0 11 6 ENE - 10 -
13.02.2019 13:00:00 10,2 -2,3 15 8 ENE 1036,2 10 -
13.02.2019 12:00:00 11,0 -2,0 13 7 E - 10 -
13.02.2019 11:00:00 10,0 1,0 8 4 ENE - 10 -
13.02.2019 10:00:00 8,6 -0,6 5 3 NE 1036,0 10 0,0
13.02.2019 09:00:00 4,0 0,0 2 1 - - 10 -
13.02.2019 08:00:00 -1,0 -3,0 4 2 S - 10 -
13.02.2019 07:00:00 -0,8 -2,9 4 2 S 1034,4 10 -
13.02.2019 06:00:00 -1,0 -3,0 2 1 - - 10 -
13.02.2019 05:00:00 1,0 -2,0 4 2 S - 10 -
13.02.2019 04:00:00 1,4 -1,6 2 1 S 1032,5 10 0,0
13.02.2019 03:00:00 1,0 -2,0 5 3 SSE - 10 -
13.02.2019 02:00:00 1,0 -2,0 5 3 SSE - 10 -
13.02.2019 01:00:00 2,4 -2,6 5 3 SE 1032,0 10 -
13.02.2019 00:00:00 2,0 -3,0 5 3 S - 10 -
12.02.2019 23:00:00 4,0 -3,0 8 4 SSE - 10 -
12.02.2019 22:00:00 3,9 -2,7 5 3 E 1029,2 10 0,0
12.02.2019 21:00:00 2,0 -4,0 5 3 SSO - 10 -
12.02.2019 20:00:00 5,0 -3,0 4 2 SE - 10 -
12.02.2019 19:00:00 5,3 -1,7 4 2 SE 1026,5 10 -
12.02.2019 18:00:00 8,0 -1,0 9 5 E - 10 -
12.02.2019 17:00:00 10,0 -2,0 13 7 E - 10 -
12.02.2019 16:00:00 11,5 -3,8 8 4 E 1024,4 10 0,0
12.02.2019 15:00:00 12,0 -3,0 11 6 NE - 10 -
12.02.2019 14:00:00 12,0 -4,0 11 6 N - 10 -
12.02.2019 13:00:00 13,5 -7,6 21 11 NO 1023,9 10 -
12.02.2019 12:00:00 13,0 -8,0 24 13 ONO - 10 -
12.02.2019 11:00:00 12,0 -8,0 22 12 ONO - 10 -
12.02.2019 10:00:00 10,6 -8,2 24 13 O 1024,1 10 0,0
12.02.2019 09:00:00 9,0 -9,0 21 11 O - 10 -
12.02.2019 08:00:00 6,0 -8,0 16 9 O - 10 -
12.02.2019 07:00:00 5,5 -8,4 16 9 O 1022,9 10 -
12.02.2019 06:00:00 5,0 -8,0 11 6 OSO - 10 -
12.02.2019 05:00:00 5,0 -8,0 11 6 OSO - 10 -
12.02.2019 04:00:00 5,7 -7,6 15 8 O 1021,4 10 0,0
12.02.2019 03:00:00 6,0 -7,0 15 8 O - 10 -
12.02.2019 02:00:00 5,0 -6,0 13 7 O - 10 -
12.02.2019 01:00:00 5,4 -4,9 13 7 O 1020,1 10 -
12.02.2019 00:00:00 5,0 -3,0 15 8 ONO - 10 -
11.02.2019 23:00:00 8,0 -3,0 18 10 O - 10 -
11.02.2019 22:00:00 8,5 -0,1 15 8 O 1017,8 10 0,0
11.02.2019 21:00:00 9,0 1,0 8 4 N - 10 -
11.02.2019 20:00:00 8,0 2,0 4 2 - - 10 -
11.02.2019 19:00:00 7,3 3,0 2 1 S 1014,8 10 -
11.02.2019 18:00:00 8,0 3,0 5 3 O - 10 -
11.02.2019 17:00:00 9,0 3,0 2 1 - - 10 -
11.02.2019 16:00:00 10,1 2,3 4 2 - 1012,2 10 0,0
11.02.2019 15:00:00 10,0 3,0 11 6 NNE - 10 -
11.02.2019 14:00:00 10,0 3,0 16 9 NNO - 10 -
11.02.2019 13:00:00 10,0 2,3 21 11 NO 1010,6 10 -
11.02.2019 12:00:00 10,0 2,0 31 17 ONO - 10 -
11.02.2019 11:00:00 10,0 1,0 28 15 NO - 10 -
11.02.2019 10:00:00 8,9 2,6 15 8 NO 1008,5 10 0,0
11.02.2019 09:00:00 9,0 2,0 16 9 OSO - 10 -
11.02.2019 08:00:00 6,0 4,0 9 5 OSO - 10 -
11.02.2019 07:00:00 5,7 4,8 13 7 O 1006,2 1,1 -
11.02.2019 06:00:00 8,0 5,0 16 9 O - 10 -
11.02.2019 05:00:00 9,0 5,0 22 12 SO - 10 -
11.02.2019 04:00:00 8,2 6,4 11 6 OSO 1006,2 3,5 0,0
11.02.2019 03:00:00 9,0 6,0 29 16 ONO - 4,9 -
11.02.2019 02:00:00 14,0 6,0 22 12 SSO - 10 -
11.02.2019 01:00:00 14,3 5,4 21 11 S 1005,6 10 -
11.02.2019 00:00:00 14,0 6,0 16 9 S - 10 -
10.02.2019 23:00:00 13,0 5,0 11 6 S - 10 -
10.02.2019 22:00:00 11,4 4,3 4 2 - 1008,4 10 0,0
10.02.2019 21:00:00 14,0 5,0 13 7 S - 10 -
10.02.2019 20:00:00 14,0 5,0 22 12 S - 10 -
10.02.2019 19:00:00 13,9 5,3 13 7 S 1010,7 10 -
10.02.2019 18:00:00 14,0 5,0 16 9 S - 10 -
10.02.2019 17:00:00 14,0 5,0 11 6 S - 10 -
10.02.2019 16:00:00 14,5 5,3 13 7 S 1013,8 10 0,0
10.02.2019 15:00:00 15,0 6,0 16 9 S - 10 -
10.02.2019 14:00:00 15,0 6,0 21 11 S - 10 -
10.02.2019 13:00:00 15,0 6,6 13 7 S 1016,5 10 -
10.02.2019 12:00:00 15,0 7,0 24 13 S - 10 -
10.02.2019 11:00:00 14,0 7,0 16 9 S - 10 -
10.02.2019 10:00:00 12,9 6,1 16 9 S 1018,7 10 0,0
10.02.2019 09:00:00 12,0 6,0 16 9 S - 10 -
10.02.2019 08:00:00 11,0 5,0 24 13 S - 10 -
10.02.2019 07:00:00 10,7 4,4 16 9 S 1018,8 10 -

tt = Temperatura
td = dewpoint
ff = velocità del vento
dd = direzione del vento
ppp = reduced air pressure
vv = visibility
rr = precipitazioni

Stazioni seguenti

WeatherPro
AMSI
MeteoEarth